National Weather Service Raw Text Product

Displaying AFOS PIL: RWRIA Received: 2019-09-12 01:00 UTC


199 
ASUS43 KDMX 120106
RWRIA 

WEATHER ROUNDUP FOR IOWA
NATIONAL WEATHER SERVICE DES MOINES IA
800 PM CDT WED SEP 11 2019

NOTE: "FAIR" INDICATES FEW OR NO CLOUDS BELOW 12,000 FEET WITH NO
SIGNIFICANT WEATHER AND/OR OBSTRUCTIONS TO VISIBILITY.

* - THESE STATIONS ARE NOT NWS STATIONS...THUS NOT UNDER NWS
QUALITY CONTROL.  THEY ALSO DO NOT REPORT WEATHER SUCH 
AS PRECIPITATION OR FOG.  

IAZ001>003-012>014-020>022-031>034-043>046-120200-
   NORTHWEST IOWA
  
CITY           SKY/WX    TMP DP  RH WIND       PRES   REMARKS
CARROLL *      MOCLDY    77  73  88 NE9       29.94S                  
CHEROKEE *     CLOUDY    72  69  92 E9        29.95F                  
DENISON *      CLEAR     79  77  94 E5        29.94S HX  83           
LE MARS *      CLOUDY    73  70  88 NE14G21   29.92S                  
SHELDON *      CLOUDY    70  66  88 E10       29.95F                  
SIOUX CITY     PTCLDY    76  71  85 E16G25    29.88F                  
SPENCER        CLOUDY    71  64  78 NE12      29.99F                  
STORM LAKE *   CLOUDY    70  70 100 E12       29.94S                  
$$
 
IAZ055>058-069>071-079>083-090>094-120200-
   SOUTHWEST IOWA
  
CITY           SKY/WX    TMP DP  RH WIND       PRES   REMARKS
ATLANTIC *     CLEAR     81  75  83 SE6       29.92F HX  86           
AUDUBON *        N/A     77  73  88 S3        29.95F                  
CLARINDA *     CLEAR     81  73  78 S8G14     29.95S HX  85           
COUNCIL BLFS * CLEAR     81  77  89 SE9       29.89F HX  88           
CRESTON *      CLEAR     77  72  83 S6        29.97S                  
HARLAN  *      CLEAR     79  73  83 S6        29.92F HX  82           
LAMONI         CLEAR     80  71  74 S7        29.98S HX  84           
RED OAK *      CLEAR     81  73  78 S7        29.93S HX  85           
SHENANDOAH *   CLEAR     81  73  78 SE7       29.91S HX  85           
$$
 
IAZ047>049-059>061-072>074-084-120200-
   CENTRAL IOWA
  
CITY           SKY/WX    TMP DP  RH WIND       PRES   REMARKS
AMES           CLEAR     78  73  84 S6        29.95F HX  81           
ANKENY *       CLEAR     79  73  83 CALM      29.97S HX  82           
BOONE *        CLOUDY    79  79 100 CALM      29.96S HX  83           
CHARITON *     CLEAR     79  75  89 S7        29.98S HX  82           
DES MOINES     PTCLDY    80  71  74 S7        29.95S HX  84           
GRINNELL*      CLEAR     78  72  81 S6        30.00S HX  80           
KNOXVILLE *    CLEAR     79  75  89 S7        29.98R HX  82           
MARSHALLTOWN   PTCLDY    73  73 100 NE10      29.97F                  
NEWTON *       CLEAR     77  75  94 S5        29.97S                  
PELLA *        CLEAR     79  71  75 S5        29.99R HX  81           
PERRY *        FAIR      78  74  87 SE6       29.95S HX  80           
$$
 
IAZ004>006-015-016-023>025-035-036-120200-
   NORTH CENTRAL IOWA
  
CITY           SKY/WX    TMP DP  RH WIND       PRES   REMARKS
ALGONA *       CLOUDY    72  72 100 NE6       29.98F                  
CLARION *      CLOUDY    72  70  94 NE7       29.99F                  
ESTHERVILLE    CLOUDY    67  64  90 NE9       30.00F                  
FORT DODGE *   CLEAR     71  69  93 NE6       29.98F                  
MASON CITY     CLOUDY    71  67  87 NE5       30.02S                  
FOREST CITY *  CLOUDY    72  70  94 NE5       30.01S                  
IOWA FALLS *     N/A     73  67  80 E5        30.01S                  
$$

IAZ007>011-017>019-026>030-037>042-050>054-066-120200-
   NORTHEAST IOWA
  
CITY           SKY/WX    TMP DP  RH WIND       PRES   REMARKS
CEDAR RAPIDS   FAIR      77  73  87 CALM      29.98S                  
CHARLES CITY * CLOUDY    73  72  94 NE5       30.02R                  
CLINTON *      FAIR      76  72  87 S8        30.01S                  
DECORAH *      CLOUDY    72  72 100 CALM      30.01R                  
DUBUQUE        TSTM      69  69 100 W12G23    30.02F FOG              
MONTICELLO *   CLOUDY    73  70  88 VRB5      30.00S FOG              
OELWEIN *      CLOUDY    73  73 100 NE3       30.01S                  
WATERLOO       MOCLDY    75  69  81 NE5       29.98S                  
$$
 
IAZ064-065-067-068-078-120200-
   EAST CENTRAL IOWA
  
CITY           SKY/WX    TMP DP  RH WIND       PRES   REMARKS
DAVENPORT      FAIR      79  70  74 S7        30.02S HX  82           
IOWA CITY      FAIR      80  72  76 S7        29.99S HX  84           
MUSCATINE *    FAIR      79  72  78 S5        30.00R HX  82           
QUAD CITIES    FAIR      79  72  79 S3        30.00S HX  82           
$$
 
IAZ062-063-075>077-085>089-095>099-120200-
   SOUTHEAST IOWA
  
CITY           SKY/WX    TMP DP  RH WIND       PRES   REMARKS
BURLINGTON     CLEAR     80  71  74 S5        30.01S HX  84           
FAIRFIELD *    CLEAR     79  73  83 S6        30.00R HX  82           
FORT MADISON * CLEAR     79  73  83 S3        30.02R HX  82           
KEOKUK *       CLEAR     81  73  78 S5        30.01R HX  85           
OSKALOOSA *    FAIR      77  70  79 S5        29.99S                  
CENTERVILLE *  FAIR      77  73  88 S7        30.01S                  
OTTUMWA        CLEAR     78  71  79 S7        29.99R HX  80           
WASHINGTON *   CLEAR     77  73  88 S7        29.98S                  
$$

ABBREVIATIONS USED IN REMARKS
   TC - TEMPERATURES IN CELSIUS
  WCI - WIND CHILL INDEX
   HX - HEAT INDEX
  VSB - VISIBILITY  
$$

  

560 
ASUS43 KDMX 120101
RWRIA 

WEATHER ROUNDUP FOR IOWA
NATIONAL WEATHER SERVICE DES MOINES IA
800 PM CDT WED SEP 11 2019

NOTE: "FAIR" INDICATES FEW OR NO CLOUDS BELOW 12,000 FEET WITH NO
SIGNIFICANT WEATHER AND/OR OBSTRUCTIONS TO VISIBILITY.

* - THESE STATIONS ARE NOT NWS STATIONS...THUS NOT UNDER NWS
QUALITY CONTROL.  THEY ALSO DO NOT REPORT WEATHER SUCH 
AS PRECIPITATION OR FOG.  

IAZ001>003-012>014-020>022-031>034-043>046-120200-
   NORTHWEST IOWA
  
CITY           SKY/WX    TMP DP  RH WIND       PRES   REMARKS
CARROLL *      MOCLDY    77  73  88 NE9       29.94S                  
CHEROKEE *     CLOUDY    72  69  92 E9        29.95F                  
DENISON *      CLEAR     79  77  94 E5        29.94S HX  83           
LE MARS *      CLOUDY    73  70  88 NE14G21   29.92S                  
SHELDON *      CLOUDY    70  66  88 E10       29.95F                  
SIOUX CITY     PTCLDY    76  71  85 E16G25    29.88F                  
SPENCER        CLOUDY    71  64  78 NE12      29.99F                  
STORM LAKE *   CLOUDY    70  70 100 E12       29.94S                  
$$
 
IAZ055>058-069>071-079>083-090>094-120200-
   SOUTHWEST IOWA
  
CITY           SKY/WX    TMP DP  RH WIND       PRES   REMARKS
ATLANTIC *     CLEAR     81  75  83 SE6       29.92F HX  86           
AUDUBON *        N/A     77  73  88 S3        29.95F                  
CLARINDA *     CLEAR     81  73  78 S8G14     29.95S HX  85           
COUNCIL BLFS * CLEAR     81  77  89 SE9       29.89F HX  88           
CRESTON *      CLEAR     77  72  83 S6        29.97S                  
HARLAN  *      CLEAR     79  73  83 S6        29.92F HX  82           
LAMONI         CLEAR     80  71  74 S7        29.98S HX  84           
RED OAK *      CLEAR     81  73  78 S7        29.93S HX  85           
SHENANDOAH *   CLEAR     81  73  78 SE7       29.91S HX  85           
$$
 
IAZ047>049-059>061-072>074-084-120200-
   CENTRAL IOWA
  
CITY           SKY/WX    TMP DP  RH WIND       PRES   REMARKS
AMES           CLEAR     78  73  84 S6        29.95F HX  81           
ANKENY *       CLEAR     79  73  83 CALM      29.97S HX  82           
BOONE *        CLOUDY    79  79 100 CALM      29.96S HX  83           
CHARITON *     CLEAR     79  75  89 S7        29.98S HX  82           
DES MOINES     PTCLDY    80  71  74 S7        29.95S HX  84           
GRINNELL*      CLEAR     78  72  81 S6        30.00S HX  80           
KNOXVILLE *    CLEAR     79  75  89 S7        29.98R HX  82           
MARSHALLTOWN   PTCLDY    73  73 100 NE10      29.97F                  
NEWTON *       CLEAR     77  75  94 S5        29.97S                  
PELLA *        CLEAR     79  71  75 S5        29.99R HX  81           
PERRY *        FAIR      78  74  87 SE6       29.95S HX  80           
$$
 
IAZ004>006-015-016-023>025-035-036-120200-
   NORTH CENTRAL IOWA
  
CITY           SKY/WX    TMP DP  RH WIND       PRES   REMARKS
ALGONA *       CLOUDY    72  72 100 NE6       29.98F                  
CLARION *      CLOUDY    72  70  94 NE7       29.99F                  
ESTHERVILLE    CLOUDY    67  64  90 NE9       30.00F                  
FORT DODGE *   CLEAR     71  69  93 NE6       29.98F                  
MASON CITY     CLOUDY    71  67  87 NE5       30.02S                  
FOREST CITY *  CLOUDY    72  70  94 NE5       30.01S                  
IOWA FALLS *     N/A     73  67  80 E5        30.01S                  
$$

IAZ007>011-017>019-026>030-037>042-050>054-066-120200-
   NORTHEAST IOWA
  
CITY           SKY/WX    TMP DP  RH WIND       PRES   REMARKS
CEDAR RAPIDS   FAIR      77  73  87 CALM      29.98S                  
CHARLES CITY * CLOUDY    73  72  94 NE5       30.02R                  
CLINTON *      FAIR      76  72  87 S8        30.01S                  
DECORAH *      CLOUDY    72  72 100 CALM      30.01R                  
DUBUQUE        TSTM      69  69 100 W29G38    30.02F FOG              
MONTICELLO *   CLOUDY    73  70  88 VRB5      30.00S FOG              
OELWEIN *      CLOUDY    73  73 100 NE3       30.01S                  
WATERLOO       MOCLDY    75  69  81 NE5       29.98S                  
$$
 
IAZ064-065-067-068-078-120200-
   EAST CENTRAL IOWA
  
CITY           SKY/WX    TMP DP  RH WIND       PRES   REMARKS
DAVENPORT      FAIR      79  70  74 S7        30.02S HX  82           
IOWA CITY      FAIR      80  72  76 S7        29.99S HX  84           
MUSCATINE *    FAIR      79  72  78 S5        30.00R HX  82           
QUAD CITIES    FAIR      79  72  79 S3        30.00S HX  82           
$$
 
IAZ062-063-075>077-085>089-095>099-120200-
   SOUTHEAST IOWA
  
CITY           SKY/WX    TMP DP  RH WIND       PRES   REMARKS
BURLINGTON     CLEAR     80  71  74 S5        30.01S HX  84           
FAIRFIELD *    CLEAR     79  73  83 S6        30.00R HX  82           
FORT MADISON * CLEAR     79  73  83 S3        30.02R HX  82           
KEOKUK *       CLEAR     81  73  78 S5        30.01R HX  85           
OSKALOOSA *    FAIR      77  70  79 S5        29.99S                  
OTTUMWA        CLEAR     78  71  79 S7        29.99R HX  80           
WASHINGTON *   CLEAR     77  73  88 S7        29.98S                  
$$

ABBREVIATIONS USED IN REMARKS
   TC - TEMPERATURES IN CELSIUS
  WCI - WIND CHILL INDEX
   HX - HEAT INDEX
  VSB - VISIBILITY  
$$